#timestamp,LO_Frequency,Hit,StdDev 
1704466815.4,286047003.4,N
1704466835.3,286047004.2,N
1704466855.1,286047001.3,N
1704466875.8,286047003.1,N
1704466895.7,286047003.7,N
1704466915.5,286047002.0,N
1704466935.4,286047001.8,N
1704466955.2,286047003.8,N
1704466975.0,286047004.0,N
1704466976.0,286047004.0,N
1704466995.8,286047004.4,N
1704467015.6,286047002.0,N
1704467035.5,286047001.5,N
1704467055.3,286047002.0,N
1704467075.1,286047004.2,Y
1704467095.9,286047000.9,P
1704467115.7,286046998.6,N
1704467135.6,286047000.7,N
1704467155.4,286047000.9,N
1704467175.2,286046999.9,N
1704467195.1,286047000.0,N
1704467196.0,286047000.0,N
1704467215.8,286047000.3,N
1704467235.6,286047000.7,N
1704467255.5,286046998.1,N
1704467275.3,286047000.6,N
1704467295.2,286046998.5,N
1704467315.9,286047000.7,N
1704467335.7,286047000.3,N
1704467355.6,286047000.3,N
1704467375.4,286047002.3,N
1704467395.3,286047000.0,N
1704467415.1,286047002.3,N
1704467416.0,286047002.3,N
1704467435.8,286047002.6,N
1704467455.7,286047002.3,N
1704467475.5,286047000.0,N
1704467495.3,286046998.1,N
1704467515.2,286046998.6,N
1704467535.0,286046998.9,N
1704467535.9,286046998.9,N
1704467555.8,286046996.5,N
1704467575.6,286046999.5,N
1704467595.4,286046996.8,N
1704467615.3,286046996.7,N
1704467635.1,286046998.6,N
1704467655.8,286047000.9,N
1704467675.7,286047001.0,N
1704467695.5,286047000.6,N
1704467715.4,286047000.8,N
1704467735.2,286046998.3,N
1704467755.0,286046999.1,N
1704467755.9,286046999.1,N
1704467775.8,286046998.7,N
1704467795.6,286047000.9,N
1704467815.5,286046998.6,N
1704467835.3,286046999.1,N
1704467855.1,286047000.7,N
1704467875.9,286046998.1,N
1704467895.7,286046999.4,N
1704467915.5,286046998.3,N
1704467935.4,286046999.0,N
1704467955.2,286046998.4,N
1704467975.1,286046999.0,N
1704467976.0,286046999.0,N
1704467995.8,286046999.4,N
1704468015.6,286046999.5,N
1704468035.5,286046999.4,N
1704468055.3,286046998.5,N
1704468075.1,286046998.9,N
1704468095.9,286046999.1,N
1704468115.7,286046998.3,N
1704468135.6,286046998.4,N
1704468155.4,286046998.3,N
1704468175.2,286046998.1,N
1704468195.1,286046998.8,N
1704468196.0,286046998.8,N
1704468215.8,286046998.9,N
1704468235.6,286046998.5,N
1704468255.5,286047000.8,N
1704468275.3,286047000.0,N
1704468295.2,286047000.9,N
1704468315.9,286047002.7,Y
1704468335.7,286047004.3,P
1704468355.6,286047004.4,N
1704468375.4,286047001.3,N
1704468395.2,286047001.8,N
1704468415.1,286047001.4,N
1704468416.0,286047001.4,N
1704468435.8,286047000.0,N
1704468455.7,286047002.3,N
1704468475.5,286047002.1,N
1704468495.3,286047002.5,N
1704468515.2,286047002.4,N
1704468535.0,286047000.3,N
1704468535.9,286047000.3,N
1704468555.8,286047000.4,N
1704468575.6,286046999.8,N
1704468595.4,286047001.0,N
1704468615.3,286047000.9,N
1704468635.1,286047000.4,N
1704468655.8,286047000.6,N
1704468675.7,286046998.7,N
1704468695.5,286046998.6,N
1704468715.4,286047001.0,N
1704468735.2,286047001.0,N
1704468755.0,286047000.9,N
1704468755.9,286047000.9,N
1704468775.8,286046998.6,N
1704468795.6,286046998.6,N
1704468815.4,286047001.1,N
1704468835.3,286047000.2,N
1704468855.1,286046998.6,N
1704468875.9,286046998.7,N
1704468895.7,286046998.2,N
1704468915.5,286046998.2,N
1704468935.4,286046999.0,N
1704468955.2,286046999.0,N
1704468975.0,286046999.3,N
1704468976.0,286046999.3,N
1704468995.8,286046999.0,N
1704469015.6,286047000.7,N
1704469035.5,286047002.8,N
1704469055.3,286047000.6,N
1704469075.1,286047000.4,N
1704469095.9,286047000.5,N
1704469115.7,286047000.6,N
1704469135.6,286047001.2,N
1704469155.4,286047001.1,N
1704469175.2,286046998.9,N
1704469195.1,286046998.2,N
1704469196.0,286046998.2,N
1704469215.8,286046999.9,N
1704469235.7,286047000.3,N
1704469255.5,286046999.8,N
1704469275.3,286047000.9,N
1704469295.2,286047000.5,N
1704469315.0,286047000.5,N
1704469315.9,286047000.5,N
1704469335.7,286047000.1,N
1704469355.6,286047001.0,N
1704469375.4,286047000.3,N
1704469395.3,286046998.1,N
1704469415.1,286047000.9,N
1704469435.8,286046998.6,N
1704469455.7,286046999.0,N
1704469475.5,286046999.0,N
1704469495.4,286046998.9,N
1704469515.2,286046999.6,N
1704469535.0,286046999.3,N
1704469535.9,286046999.3,N
1704469555.8,286046998.6,N
1704469575.6,286047001.1,N
1704469595.5,286047000.8,N
1704469615.3,286047000.4,N
1704469635.1,286047000.4,N
1704469655.9,286046996.5,Y
1704469675.7,286046999.4,P
1704469695.6,286046999.5,N
1704469715.4,286046999.1,P
1704469735.2,286046997.0,Y
1704469755.1,286046998.1,P
1704469756.0,286046998.1,N
1704469775.8,286046999.9,N
1704469795.7,286047002.6,Y
1704469815.5,286047002.0,P
1704469835.3,286047004.1,N
1704469855.2,286047001.3,N
1704469875.0,286047002.3,N
1704469875.9,286047002.3,N
1704469895.8,286047002.3,N
1704469915.6,286047001.6,N
1704469935.4,286047001.5,N
1704469955.3,286047001.7,N
1704469975.1,286047002.4,N
1704469995.9,286047002.6,N
1704470015.7,286046999.7,N
1704470035.5,286047000.9,N
1704470055.4,286047001.0,N
1704470075.2,286047000.1,N
1704470095.0,286047002.7,N
1704470095.9,286047002.7,N
1704470115.8,286046999.9,N
1704470135.6,286047000.7,N
1704470155.5,286046998.8,N
1704470175.3,286046998.8,N
1704470195.1,286046999.2,N
1704470215.9,286046998.5,N
1704470235.7,286046998.4,N
1704470255.6,286046999.7,N
1704470275.4,286047002.1,N
1704470295.2,286046999.8,N
1704470315.1,286046999.9,N
1704470316.0,286046999.9,N
1704470335.8,286047000.5,N
1704470355.7,286047000.7,N
1704470375.5,286047000.6,N
1704470395.3,286046998.6,N
